Temp
7 8 8 8 8 8 8 8 8 8 8 8 8 8 8 8 8 8 8 8 9 8 8 8 8 9 8 8 8 8 8 9 10 9 10 17 21 21 20 21 21 20 20 20 20 20 20 20 20 20 20 21 20 21 21 21 22 23 22 22 21 21 22 23 24 25 24 25 27 26 26 27 28 27 26 25 23 22 21 20 19 19 19 19 19 18 18 18
7 7 8 8 8 8 8 8 8 8 8 8 8 8 8 8 8 8 8 8 8 8 8 8 8 8 8 8 8 8 9 9 9 9 14 21 22 20 21 21 20 20 20 20 20 20 20 20 20 20 21 21 20 21 22 22 23 23 22 21 21 22 22 24 25 25 25 26 26 26 26 27 27 27 27 26 23 22 22 19 19 19 18 18 18 18 18 18
7 7 7 7 8 8 8 8 8 8 8 8 8 8 8 8 8 8 8 8 8 8 8 8 8 8 8 8 8 8 8 8 11 15 20 23 22 21 21 21 20 20 20 21 21 20 20 20 20 20 21 21 21 22 22 23 23 23 22 22 22 23 23 24 25 25 26 26 26 26 26 27 27 27 27 26 23 23 22 20 19 19 19 18 18 17 17 17
7 7 7 7 7 7 8 8 8 8 8 8 8 8 8 8 8 8 8 8 8 8 8 8 8 8 8 8 8 9 8 11 17 21 23 23 23 22 21 21 20 20 20 20 21 21 20 20 20 21 21 21 21 21 22 23 23 23 23 23 23 23 23 25 25 25 25 25 26 26 26 27 27 27 27 26 25 24 23 21 21 19 19 18 18 18 18 18
7 7 7 7 7 7 8 8 8 8 8 8 8 8 8 8 8 8 8 8 8 8 8 8 8 8 8 8 9 8 9 16 22 22 22 23 23 22 21 21 20 20 20 19 20 20 20 20 20 21 21 21 21 21 22 23 23 23 23 24 24 23 24 25 25 25 25 25 26 26 26 28 27 27 27 27 27 27 24 22 20 19 18 18 18 18 18 18
7 7 7 7 7 7 8 8 7 7 8 8 8 8 8 8 8 8 8 8 8 8 8 8 8 8 8 9 9 9 13 20 21 21 23 23 23 23 22 21 20 20 19 19 20 20 20 20 20 21 20 21 21 22 22 23 23 23 23 24 24 23 23 25 25 25 26 26 26 26 27 27 28 27 25 26 27 25 23 22 20 18 18 18 18 18 17 17
7 7 7 7 7 7 8 8 7 7 8 8 8 8 8 8 8 8 8 8 8 8 8 8 8 8 8 9 10 10 13 18 21 22 23 22 23 23 22 21 20 20 19 19 19 20 21 20 20 21 20 21 21 22 23 23 23 23 23 24 24 24 24 25 25 25 25 26 26 26 26 27 28 27 24 23 23 21 21 20 19 19 19 19 18 18 17 17
7 7 7 7 7 7 8 8 7 7 8 8 8 8 8 8 8 8 8 8 8 8 8 8 8 8 8 9 11 12 14 18 22 23 23 23 23 22 22 21 20 20 19 19 19 19 20 20 20 21 20 21 22 22 23 23 23 23 23 24 24 24 24 25 24 24 24 25 26 25 26 27 27 26 23 22 21 20 20 19 19 19 18 18 18 18 18 17
7 7 7 7 7 7 7 7 7 7 8 8 8 8 8 8 8 8 8 8 8 8 8 8 8 8 9 9 10 15 19 21 23 23 23 23 22 22 22 21 20 19 19 19 20 20 20 21 21 21 21 22 22 22 23 23 23 23 23 24 24 24 25 25 24 24 24 24 25 25 26 27 26 24 22 21 21 20 20 19 19 18 18 18 18 17 17 17
7 7 7 7 7 7 7 7 7 8 8 8 8 8 8 8 8 8 8 8 8 8 8 8 8 8 9 9 11 17 22 23 23 23 23 22 22 22 21 21 20 19 19 19 19 20 20 21 21 21 21 22 22 22 23 23 23 23 23 23 24 24 24 24 24 24 24 25 26 26 27 27 25 24 23 21 21 20 19 19 18 18 18 18 17 17 17 17
7 7 7 7 7 7 7 7 7 7 8 8 8 8 9 9 9 8 8 8 8 8 8 8 8 8 9 10 13 18 21 22 23 23 23 22 21 21 21 20 20 19 19 19 19 20 20 20 21 21 21 22 22 22 23 23 23 24 23 23 24 24 23 24 24 24 24 26 26 26 27 26 24 25 24 21 21 20 19 19 18 18 18 17 17 17 17 17
7 7 7 7 7 7 7 7 7 8 9 9 8 9 10 10 9 9 9 8 8 8 8 8 8 9 9 10 13 18 22 22 22 23 22 22 21 21 21 21 20 20 20 19 19 20 21 21 21 22 22 22 22 22 23 24 24 24 23 24 24 24 25 25 25 25 25 26 26 26 26 25 25 24 22 21 21 20 19 19 18 18 17 17 17 17 17 17
7 7 7 7 6 7 7 7 8 9 10 9 9 10 11 11 10 10 10 9 8 8 8 8 8 8 9 13 17 20 22 21 21 22 22 22 21 21 21 20 21 20 21 21 20 22 22 21 21 21 22 21 22 23 24 24 24 24 23 23 24 24 25 26 25 25 26 26 27 26 23 24 25 22 21 21 20 20 19 19 18 18 17 17 17 17 16 16
8 7 7 7 7 7 8 9 10 10 10 10 11 12 12 12 11 10 10 9 8 8 8 8 8 8 10 15 20 21 21 21 20 21 22 22 21 20 20 20 21 21 21 21 22 23 22 22 21 21 21 21 22 23 23 23 23 23 23 23 22 22 24 25 25 25 26 25 26 26 23 23 24 20 20 21 20 20 19 19 18 18 17 17 17 17 16 16
9 9 8 8 7 8 9 10 11 11 12 12 13 13 13 12 11 11 10 10 9 9 9 8 8 9 11 16 20 21 20 20 20 21 23 22 21 21 21 21 21 21 21 21 22 22 22 22 21 21 22 22 23 23 23 23 23 22 22 22 21 21 23 25 24 24 26 25 25 26 23 22 23 20 21 21 20 20 19 19 19 18 17 17 17 16 16 16
11 11 10 10 9 10 10 11 12 12 13 13 13 14 13 12 11 11 11 10 9 9 9 9 9 10 13 17 20 21 20 20 21 22 22 22 22 22 22 21 21 21 21 21 22 22 21 22 21 22 23 23 23 23 22 22 22 21 21 21 21 21 22 23 24 24 25 25 25 25 24 23 23 21 20 20 20 20 19 19 19 18 17 17 17 16 16 16
12 12 12 11 11 11 12 12 12 13 13 14 14 14 13 12 11 11 11 10 10 9 9 10 10 10 15 19 21 21 21 21 23 23 22 22 22 23 23 22 21 21 21 22 22 21 22 22 22 22 22 21 21 22 21 20 21 21 21 21 21 21 21 22 24 24 24 24 25 25 24 24 23 21 20 20 20 19 19 19 18 18 17 17 17 17 17 16
12 12 12 12 12 12 12 13 13 14 14 14 14 15 14 13 11 11 11 10 10 10 10 11 10 13 18 20 20 21 22 22 23 23 22 23 22 22 23 22 22 22 22 22 22 22 22 22 21 22 21 21 21 21 21 20 21 21 21 21 21 21 21 21 23 24 24 24 24 24 24 24 22 21 20 20 20 19 19 19 18 18 17 17 17 17 17 17
12 12 12 12 13 13 13 13 14 14 14 14 14 14 14 12 11 11 10 10 11 14 15 14 13 18 20 20 20 21 22 23 23 23 23 22 22 22 22 22 22 22 22 22 22 22 22 22 21 21 21 21 21 22 22 22 22 22 21 21 21 21 21 22 23 24 24 23 23 23 24 23 21 20 20 20 20 19 19 18 18 18 17 17 17 17 17 17
12 12 12 12 13 13 13 13 14 14 14 14 13 13 14 14 14 14 12 11 13 16 19 17 16 19 20 20 21 21 22 23 23 23 23 23 22 21 22 22 22 22 21 22 22 21 21 21 21 21 21 22 22 22 22 21 21 21 21 21 21 21 21 23 24 24 23 22 23 22 23 23 21 20 20 20 20 19 19 18 18 17 17 17 17 17 17 17
12 12 13 13 13 13 13 13 13 13 13 12 12 14 16 17 17 17 15 14 14 15 17 18 17 18 20 20 21 21 21 21 22 23 23 23 23 22 21 21 21 21 21 21 21 21 21 21 21 22 22 22 21 20 20 20 20 21 21 21 21 21 22 24 24 23 23 23 22 21 23 23 21 21 21 21 20 20 19 18 18 17 17 17 17 17 17 17
12 12 13 13 13 13 13 13 13 13 12 11 11 13 16 18 18 18 17 17 17 16 16 17 17 17 19 19 20 21 20 20 21 22 23 23 22 22 21 21 21 21 20 20 21 21 20 20 21 21 20 19 19 19 20 20 20 21 21 21 21 22 22 23 24 23 23 24 23 22 24 23 21 21 21 21 21 20 19 18 18 18 17 17 17 17 17 17
12 13 13 13 13 14 13 13 13 13 12 12 11 13 16 18 19 18 17 17 17 18 17 16 17 17 18 19 20 20 20 20 21 22 23 22 22 22 22 21 21 21 20 21 21 20 20 21 22 20 19 19 20 20 20 20 20 21 21 21 21 22 22 22 24 24 23 23 23 23 24 23 22 21 21 21 21 20 19 19 18 18 18 18 18 18 17 17
12 13 13 13 13 14 14 14 14 13 13 12 12 15 19 19 18 17 17 17 17 18 18 18 18 18 19 20 21 20 20 21 21 22 23 22 22 22 22 22 21 21 21 21 21 20 21 22 21 20 20 21 21 21 21 21 21 21 22 22 22 22 22 22 23 23 23 22 22 24 23 22 22 22 22 21 21 20 19 19 19 18 18 18 18 18 18 18
12 13 13 13 13 14 15 14 13 13 13 12 14 19 19 18 18 18 18 17 17 18 19 19 19 20 21 21 21 21 21 21 22 23 23 23 22 22 22 22 21 21 21 21 20 20 21 21 21 21 21 20 21 21 21 22 21 21 22 23 23 23 23 22 22 23 23 22 21 22 21 21 22 22 22 21 21 20 19 19 19 18 18 19 18 18 18 18
12 12 13 13 13 14 15 15 13 13 13 15 18 19 18 18 18 18 18 16 17 19 20 20 20 21 22 21 21 22 21 22 23 23 23 23 23 23 22 22 22 22 21 21 21 21 22 22 22 22 22 20 20 20 21 21 21 21 22 23 23 23 23 23 23 22 21 21 21 20 21 21 21 22 22 21 21 20 19 19 19 18 19 19 18 18 18 18
12 12 13 13 13 13 14 15 14 13 15 18 19 18 19 19 18 18 18 16 17 20 20 20 20 22 23 22 22 22 21 22 23 23 23 23 24 24 23 22 22 22 22 21 21 21 22 23 23 22 21 20 20 21 21 21 21 22 21 22 23 24 24 23 23 22 21 21 21 21 21 21 21 22 21 20 20 20 20 20 19 19 19 18 18 18 18 18
12 12 12 12 13 12 12 13 12 13 17 19 18 18 19 19 18 19 17 16 19 21 21 21 21 22 23 22 23 23 22 23 23 23 23 24 24 24 23 22 22 22 22 22 21 21 21 23 23 22 21 20 21 22 22 21 23 23 21 22 23 23 23 23 23 22 21 21 21 21 21 21 21 21 21 20 21 20 20 20 20 20 19 19 19 18 18 18
12 13 12 12 13 13 12 11 11 14 18 18 18 19 19 19 19 19 16 17 20 21 22 22 22 22 22 22 22 23 23 23 23 23 23 23 24 23 22 22 22 22 22 21 21 22 22 23 23 22 22 21 23 24 22 22 24 23 21 22 22 22 21 21 22 22 21 20 21 20 20 20 20 21 22 21 21 21 21 21 20 20 20 19 19 18 18 18
12 13 12 11 12 12 12 11 13 17 18 18 18 19 19 19 19 17 15 17 20 21 22 21 21 22 22 22 22 22 22 23 23 23 23 23 23 23 23 22 22 22 22 21 21 22 22 22 22 22 23 23 24 23 21 22 23 22 22 22 22 21 21 21 21 21 21 20 20 20 20 20 20 21 22 22 22 21 22 22 21 20 20 19 19 19 19 19
13 13 12 11 11 11 11 12 16 18 18 18 18 18 19 19 17 16 16 19 20 21 22 21 21 23 22 22 22 22 22 22 23 23 22 22 22 23 22 22 22 21 21 21 21 21 22 23 22 23 23 23 24 23 21 21 22 22 23 22 22 21 20 21 20 20 20 20 20 20 19 20 20 21 21 21 20 19 20 21 21 20 20 19 19 19 18 19
13 14 13 12 12 11 12 15 17 17 17 18 17 18 19 17 15 16 17 19 20 21 21 20 21 22 22 22 22 22 22 22 23 23 22 22 21 22 22 22 21 21 20 20 21 21 22 23 22 23 23 23 24 23 22 22 21 22 23 21 21 20 20 20 20 19 20 20 20 19 19 20 20 21 20 19 19 18 19 20 19 19 20 19 19 19 19 19
13 13 14 14 13 13 14 16 17 16 17 17 17 18 18 16 16 17 17 19 20 20 20 20 21 21 21 21 22 22 22 22 23 23 22 21 21 21 21 21 21 21 20 20 20 21 21 22 22 23 24 24 24 23 22 22 22 22 22 21 21 20 19 19 18 18 19 20 19 18 19 20 20 20 19 18 17 17 17 18 18 18 18 18 18 18 18 18
14 14 14 15 14 15 16 16 16 16 16 16 17 17 16 15 16 17 17 18 19 20 20 20 20 21 21 21 22 23 22 22 22 22 22 21 21 20 21 21 20 21 21 20 19 20 21 21 22 23 23 23 24 24 23 23 22 21 21 21 21 20 20 20 19 19 19 19 19 18 19 20 20 20 19 17 17 16 17 17 17 17 17 17 17 17 17 17
14 14 14 14 15 16 17 16 16 15 15 15 16 16 15 15 16 16 17 18 19 20 20 20 20 20 21 21 22 22 22 22 22 22 21 21 21 21 21 21 21 21 21 20 19 20 20 21 22 23 22 22 23 23 23 24 22 20 19 21 21 21 21 19 18 19 19 19 19 19 19 19 19 19 19 18 17 17 17 17 17 17 17 16 16 16 16 15
14 14 14 14 16 17 17 17 16 15 15 16 16 15 15 16 16 17 18 19 19 19 19 20 20 20 20 20 21 21 22 22 22 21 21 20 21 21 21 22 21 21 21 21 20 20 20 21 22 22 22 23 22 22 23 23 22 20 19 21 20 20 21 20 17 17 18 20 19 18 19 19 18 19 19 18 18 18 17 17 17 17 17 17 16 17 17 15
13 13 12 13 16 16 16 17 16 14 15 16 15 15 15 16 17 17 19 19 19 19 19 18 19 20 19 19 20 20 21 21 21 21 20 21 20 20 21 22 22 22 22 22 21 20 20 21 21 22 23 23 21 22 23 22 21 21 21 21 20 19 20 20 19 18 18 19 19 17 18 19 19 19 19 18 19 18 17 17 17 17 17 17 16 17 18 16
10 9 11 14 15 15 15 16 15 14 15 15 15 15 15 16 17 18 19 19 19 19 18 18 19 20 19 19 20 20 21 20 20 20 20 21 20 19 20 22 22 22 21 22 22 20 20 21 21 21 22 22 22 22 23 22 21 21 21 21 20 20 21 20 19 19 18 18 18 17 17 18 19 19 19 19 19 18 17 17 17 17 17 16 16 16 16 15
8 10 14 15 15 14 14 15 15 15 15 14 14 15 15 16 17 18 18 19 18 18 18 18 19 19 19 20 20 20 20 20 20 20 20 20 20 20 20 20 22 22 20 21 22 20 19 20 21 21 21 21 22 22 21 21 22 21 21 21 20 20 20 19 19 19 19 18 17 18 18 18 19 19 19 19 18 17 17 17 17 17 16 15 15 15 15 14
9 12 15 15 14 14 14 15 15 15 15 14 14 15 15 16 17 18 19 19 19 19 18 18 19 19 19 20 20 20 20 20 19 19 19 20 20 20 20 20 21 21 21 21 20 19 19 19 20 21 21 20 21 21 20 21 21 21 21 21 20 19 18 19 18 18 19 19 18 18 18 18 19 19 18 19 18 17 17 17 16 16 16 15 15 14 14 14
9 13 15 14 14 14 14 15 15 14 15 14 14 15 16 16 17 17 18 18 18 19 19 19 19 19 19 20 20 20 20 19 19 18 19 20 20 20 20 20 20 21 21 21 20 19 20 19 20 21 20 20 20 20 20 20 20 20 20 19 18 19 19 19 19 17 18 19 18 18 18 18 19 19 18 18 17 17 17 16 16 16 16 15 15 15 14 14
10 14 15 14 14 14 15 15 13 13 15 14 15 16 16 17 17 17 18 18 18 19 19 19 19 19 19 19 20 20 19 19 19 19 19 19 19 20 20 20 20 21 21 20 19 18 18 19 20 20 19 19 19 19 19 19 19 19 19 18 17 18 19 20 20 18 18 17 16 18 18 18 19 18 17 17 16 16 16 16 16 16 15 15 15 15 14 14
12 13 14 14 13 14 15 14 13 13 15 15 15 16 17 17 17 17 18 18 18 19 19 19 19 19 19 20 20 19 19 19 19 19 19 19 20 20 20 20 21 20 20 20 19 18 18 19 19 19 18 18 19 19 19 19 19 19 19 17 17 18 18 18 18 18 18 17 17 18 18 18 19 16 15 16 16 16 16 15 15 15 15 15 15 15 14 14
10 10 12 13 13 15 15 13 13 13 13 14 15 16 17 17 17 17 17 18 18 18 18 18 18 19 19 19 18 17 18 18 19 18 18 19 20 20 20 20 21 20 20 20 20 19 19 18 18 19 18 18 18 19 20 20 19 18 18 17 17 17 17 17 16 18 19 17 18 19 18 17 17 15 15 16 15 16 15 15 15 15 15 15 14 14 14 14
10 10 11 10 11 13 13 11 12 12 12 13 14 15 16 17 18 18 17 17 16 16 16 17 17 16 17 18 17 16 16 17 18 18 18 19 20 19 19 20 21 20 20 20 19 19 19 17 18 19 18 17 17 17 18 19 18 17 17 17 17 17 18 18 18 19 19 16 16 19 18 17 16 15 15 15 15 15 15 15 15 15 15 15 15 15 15 14
11 11 11 10 9 10 10 10 10 11 12 13 14 15 15 16 17 17 17 17 16 15 15 14 15 16 16 17 17 16 15 16 16 16 16 17 18 18 18 19 20 19 20 19 18 19 18 16 16 18 18 18 17 17 17 18 17 17 17 17 17 16 17 18 18 19 18 17 17 17 17 17 16 15 15 15 15 15 15 15 15 15 15 15 15 15 14 14
11 10 9 9 9 9 10 10 10 10 12 13 13 14 13 13 15 16 17 16 15 15 14 13 13 14 15 15 16 16 14 14 15 15 14 15 17 18 18 18 19 19 20 19 18 18 18 17 16 16 17 17 17 17 17 17 17 17 17 17 17 17 18 19 19 17 17 17 18 16 15 16 15 13 13 13 14 14 14 14 15 15 15 15 14 14 14 14
10 9 8 9 9 9 10 10 10 10 11 13 13 13 13 12 13 14 15 15 14 14 14 13 12 12 12 13 15 15 14 14 14 14 13 14 15 17 18 18 18 18 19 19 18 18 18 17 16 15 16 15 15 16 16 16 15 14 15 15 16 17 18 18 17 15 16 18 17 14 14 14 13 12 12 12 12 13 13 12 13 13 14 14 14 14 14 14
9 9 8 8 9 10 9 10 10 10 11 12 12 12 12 12 12 13 13 14 14 13 13 12 11 11 11 12 13 13 12 14 14 13 13 13 14 15 16 17 17 18 18 18 17 16 17 16 15 16 15 14 14 15 16 16 15 13 13 13 14 15 15 15 13 12 14 15 13 12 13 12 11 11 11 11 11 11 11 11 11 11 11 13 14 14 13 14
7 8 8 8 9 9 10 10 10 10 10 10 11 12 12 12 12 13 13 13 13 13 13 12 11 11 11 11 12 12 11 13 13 13 13 13 14 15 15 15 16 16 17 18 17 16 17 16 15 16 16 14 14 14 15 15 15 14 13 13 13 14 14 13 12 12 13 13 11 12 13 12 11 11 10 11 11 11 11 11 10 10 10 11 12 12 12 13
6 7 7 8 9 9 9 10 10 9 9 9 9 11 11 11 11 12 13 13 13 13 13 12 12 12 12 12 12 12 12 12 12 13 13 13 14 15 14 15 15 16 16 16 16 17 17 15 15 16 16 14 14 14 14 15 15 14 14 12 13 13 13 12 11 10 12 13 13 13 13 11 11 11 10 10 10 10 10 10 10 10 10 10 10 10 10 11
6 6 6 7 9 8 8 9 9 8 8 8 8 10 10 10 11 12 12 13 12 13 12 12 12 12 12 12 12 12 12 12 12 13 13 13 13 14 14 15 15 15 16 16 16 16 16 16 15 16 16 14 14 13 14 15 15 14 13 11 11 11 11 10 9 8 9 11 12 13 11 10 10 10 10 10 10 10 10 10 10 10 10 10 10 9 9 9
Height
791 790 789 788 787 786 785 784 783 782 782 781 780 779 778 778 777 776 775 775 774 774 773 772 772 771 771 770 769 768 766 764 762 763 760 749 745 747 748 749 750 751 752 752 753 754 754 755 756 756 757 758 760 760 759 759 758 762 770 777 779 778 775 769 765 763 762 759 751 748 748 748 748 743 739 741 747 750 754 757 756 753 752 753 756 758 761 765
791 790 789 787 786 785 784 783 782 782 781 780 779 779 778 777 776 775 774 774 774 773 772 772 771 771 770 769 769 768 765 763 761 759 751 743 744 746 746 748 750 750 751 752 753 753 755 756 756 756 758 759 760 759 759 758 757 763 772 777 775 772 768 761 758 757 756 756 751 749 749 749 748 745 739 745 755 754 756 763 761 759 759 758 759 761 764 766
790 789 788 787 785 784 783 782 782 781 780 779 779 778 777 776 775 775 774 773 773 772 772 771 771 770 769 769 768 767 765 763 759 751 743 741 743 744 746 748 749 750 751 752 753 753 754 756 756 756 758 760 760 759 760 758 758 762 768 774 769 764 762 757 756 754 752 753 752 750 748 748 745 742 740 746 756 755 757 762 762 763 763 762 763 763 765 767
789 789 787 786 785 784 783 782 781 780 779 778 778 777 776 776 775 774 773 773 772 772 771 771 770 769 769 769 768 766 765 762 753 744 741 742 742 743 745 747 748 749 751 752 753 753 754 755 755 756 759 762 761 760 761 759 759 761 764 768 762 759 760 754 752 751 749 751 751 750 747 746 742 740 741 746 754 756 755 754 754 759 761 762 764 764 766 768
789 788 786 785 784 783 782 782 780 779 778 778 777 776 776 775 775 774 773 773 772 771 771 770 770 769 769 768 767 766 765 761 748 741 742 742 741 743 744 746 748 749 750 752 752 753 754 755 756 757 760 763 762 762 762 758 757 762 761 760 757 758 759 750 748 749 748 749 750 750 749 744 740 741 743 745 749 751 749 748 749 753 755 757 760 763 766 767
788 787 785 784 783 782 782 781 780 778 778 777 776 776 775 774 774 773 773 772 772 771 770 770 770 769 768 767 767 766 765 758 745 741 741 741 742 742 744 746 747 748 750 751 752 753 754 755 757 760 762 763 764 763 761 757 757 762 761 756 754 756 757 749 746 747 746 748 749 749 746 742 741 744 745 746 747 746 743 744 749 753 754 756 758 762 765 767
787 786 784 783 782 781 781 780 779 777 777 776 776 775 774 774 773 773 772 772 771 770 770 770 770 769 768 768 766 766 766 755 742 741 741 741 742 741 744 745 747 748 749 751 752 754 754 756 758 760 763 764 763 762 759 757 757 761 761 755 752 753 753 748 745 746 746 748 747 746 745 743 744 745 747 750 749 746 743 744 750 755 757 759 761 763 765 767
786 785 783 782 781 780 780 779 778 777 776 775 775 774 774 773 773 772 772 772 771 770 770 770 770 769 769 768 766 767 765 751 740 741 740 740 742 741 743 744 746 748 749 751 751 753 754 756 758 759 764 763 761 760 757 758 758 759 759 754 751 751 749 745 745 746 747 747 745 747 748 745 744 745 749 754 752 748 745 747 751 755 758 761 763 764 765 767
786 784 782 781 780 780 779 778 777 776 775 775 774 773 773 772 772 771 771 771 770 770 770 769 770 769 769 769 769 765 754 743 739 740 740 740 741 741 743 743 746 747 748 751 751 752 753 756 757 757 761 761 759 758 756 759 760 756 755 753 751 750 746 744 745 745 746 745 744 748 748 743 742 746 754 755 753 751 749 750 753 756 760 763 765 765 765 766
785 783 782 780 779 779 777 776 776 775 775 774 773 772 772 771 771 770 770 770 770 769 769 770 769 769 770 768 769 762 745 739 740 740 740 740 740 741 742 743 745 746 748 750 750 751 752 754 755 754 757 758 757 757 756 757 757 752 752 752 750 749 746 745 745 743 744 743 741 745 745 742 742 747 757 756 752 752 753 755 756 758 761 763 765 766 766 766
785 783 781 779 778 777 775 775 774 774 774 773 772 772 771 771 770 770 770 769 769 769 769 769 769 769 770 769 769 758 742 740 741 739 740 740 740 741 741 743 744 745 747 749 750 750 750 751 752 753 757 757 755 756 754 752 751 749 751 751 748 747 746 744 743 742 743 742 739 741 742 743 745 748 753 753 751 752 754 758 760 760 762 764 766 767 767 767
784 782 780 778 777 775 774 774 773 773 772 772 771 771 771 770 770 769 769 769 768 769 769 769 770 769 769 769 764 751 740 741 741 740 740 739 740 741 741 742 743 744 746 747 749 748 749 749 750 754 756 756 757 757 752 748 749 748 749 753 749 747 745 741 740 740 740 741 736 739 746 748 748 750 749 749 751 753 755 759 762 762 764 765 767 768 768 768
783 781 780 778 776 774 773 772 772 772 771 771 770 770 770 769 769 768 768 768 768 768 768 768 769 769 770 764 750 741 740 741 741 740 740 739 740 740 741 743 743 745 745 746 747 746 748 748 750 753 752 755 758 754 748 746 748 748 750 753 753 753 748 740 741 740 740 740 733 739 756 753 750 752 749 748 750 754 758 760 762 764 765 767 768 769 769 768
783 781 779 777 775 774 772 771 771 770 770 769 769 769 768 768 768 767 767 767 767 768 768 768 769 769 770 757 740 739 741 740 740 739 739 740 740 741 741 742 743 744 745 746 745 745 747 748 750 751 751 753 752 747 749 751 750 751 753 755 762 763 752 740 740 741 740 739 731 739 758 755 752 755 749 747 749 752 758 760 762 765 766 768 769 770 771 769
782 780 778 776 775 773 772 771 769 769 768 768 767 767 767 767 767 766 767 766 766 767 766 768 768 768 768 754 739 739 739 738 738 737 738 739 739 740 741 742 743 744 744 745 744 745 747 749 751 753 751 748 748 751 756 757 754 757 759 761 766 766 755 743 739 739 740 738 734 739 756 757 754 753 748 747 749 750 756 760 762 764 766 769 770 771 771 770
782 780 778 776 774 772 771 770 768 768 767 767 767 766 766 766 766 766 766 765 766 766 767 768 767 768 767 750 738 737 737 737 736 735 738 738 738 739 740 742 742 743 744 744 744 745 747 749 750 751 749 748 752 757 761 764 762 762 765 765 763 763 761 751 739 736 736 738 737 739 750 755 751 750 748 748 751 752 756 759 762 764 766 768 770 771 771 772
782 779 778 776 773 772 770 769 768 767 766 766 766 765 765 765 765 765 765 765 766 765 767 767 767 769 759 741 737 738 735 735 734 734 736 737 738 739 739 742 742 743 743 743 744 745 746 748 750 750 751 755 757 758 767 775 770 766 766 764 762 763 764 758 744 736 735 738 740 739 744 747 746 749 751 749 751 755 757 759 761 763 766 768 770 771 771 772
781 779 777 775 773 771 769 768 767 766 766 765 765 764 764 764 764 765 765 765 765 766 767 767 768 767 752 738 738 738 734 734 733 733 735 736 738 738 739 740 741 743 744 745 745 746 747 749 752 754 756 760 760 761 772 775 767 765 766 764 764 764 764 762 750 737 734 738 741 743 745 746 748 750 751 752 753 756 758 759 760 763 766 768 769 770 771 771
781 779 777 775 773 771 769 768 766 766 765 765 764 763 763 763 764 764 765 766 765 763 761 761 761 756 745 739 737 735 733 733 733 733 734 735 737 738 739 740 741 744 748 750 749 747 748 751 756 760 762 762 760 760 763 762 760 762 765 765 766 765 762 756 747 736 735 741 744 745 745 747 751 753 753 754 755 758 761 761 763 765 767 769 770 770 770 770
780 778 776 774 772 771 769 767 766 765 764 764 764 763 763 763 763 764 765 764 760 753 748 750 751 746 741 737 735 735 734 732 733 732 732 734 736 738 740 741 744 747 750 752 751 749 749 756 762 762 760 757 756 757 756 757 762 763 764 765 764 764 758 748 740 734 734 742 747 746 746 748 751 753 754 754 756 759 763 765 766 766 768 769 770 770 770 769
779 777 775 774 772 770 768 766 765 764 764 764 763 763 762 761 763 762 760 756 750 746 745 743 743 742 737 734 734 735 736 735 732 731 732 733 734 739 742 743 748 752 753 751 751 750 753 762 761 754 753 753 756 759 758 760 762 762 763 764 764 762 753 742 738 737 734 739 749 749 746 749 752 753 753 754 756 758 760 764 765 766 768 768 769 770 770 770
778 776 774 773 771 769 768 766 765 764 763 763 763 763 760 758 759 758 757 754 745 740 742 739 740 740 733 732 734 735 739 740 735 731 731 733 735 741 743 744 749 753 752 753 755 757 760 761 754 749 754 758 760 760 760 761 761 762 764 764 762 758 752 743 737 738 736 735 746 748 744 751 755 753 753 752 752 755 756 757 759 762 766 767 767 767 768 769
777 775 773 771 770 769 767 765 764 763 762 762 762 760 757 756 756 755 756 757 746 735 736 737 738 737 733 732 731 734 739 740 737 732 729 732 736 739 742 744 749 751 752 754 756 763 766 756 747 749 754 756 757 758 758 760 761 761 761 761 759 756 756 750 740 739 740 739 744 744 744 752 755 754 753 751 751 753 754 755 757 759 761 762 763 763 765 767
776 774 772 770 768 767 765 764 762 762 761 761 759 757 755 754 755 754 754 755 749 736 730 730 731 732 730 727 727 731 736 735 735 731 727 731 736 737 740 743 748 751 752 752 754 761 759 747 744 749 751 752 754 756 757 757 758 759 757 757 755 752 752 753 747 743 742 745 746 744 750 756 755 757 756 752 753 755 757 759 759 760 761 762 763 763 763 764
775 773 771 769 767 765 764 763 760 761 761 759 757 754 754 754 752 752 752 757 755 739 729 727 728 726 722 724 726 727 732 732 729 726 724 727 732 737 739 739 744 750 751 752 755 758 751 742 743 746 748 752 754 755 755 755 759 758 752 749 748 748 749 751 751 748 748 754 752 752 763 767 759 757 758 755 756 758 760 762 760 761 762 762 764 764 764 765
774 772 770 768 766 763 763 761 760 761 759 757 755 753 753 752 751 751 754 766 761 739 730 729 728 724 719 724 724 725 735 732 721 720 722 723 726 731 738 740 742 746 748 750 753 752 746 739 739 743 746 751 756 757 753 755 761 758 748 743 744 747 748 749 748 750 756 761 758 755 764 772 764 756 757 758 758 759 761 763 762 762 762 761 762 763 764 765
773 771 768 767 765 763 763 761 761 761 758 756 753 753 752 750 752 750 757 774 763 735 730 731 728 723 719 720 720 727 740 731 718 720 719 722 725 726 736 742 742 743 741 747 755 750 743 739 740 744 747 752 756 755 751 752 756 754 747 744 744 745 746 747 746 749 758 759 758 757 758 767 768 759 759 762 761 762 762 763 763 762 762 761 761 762 763 763
771 769 767 766 765 764 763 761 761 759 757 755 753 753 751 749 751 750 766 781 756 728 727 727 722 719 717 719 719 724 729 723 724 725 716 719 724 726 736 739 740 742 737 745 756 749 742 740 739 743 748 753 750 744 743 747 747 746 745 745 743 744 747 748 746 750 759 760 760 761 759 767 771 760 758 762 762 764 762 760 760 758 759 761 761 762 763 763
770 768 766 764 763 763 762 761 760 757 755 754 753 752 749 750 750 754 776 778 745 725 725 722 721 720 719 722 722 722 721 721 726 724 717 721 724 725 734 735 736 740 738 743 750 744 740 737 735 740 746 747 739 734 738 740 741 740 742 745 745 750 754 754 752 751 759 765 767 767 765 771 774 760 754 759 760 762 760 756 756 755 756 759 760 761 761 762
768 766 765 762 761 761 760 759 756 754 755 753 753 751 748 750 754 770 786 769 740 729 724 722 725 723 722 726 727 724 724 723 722 721 722 724 724 724 729 731 734 740 742 745 745 741 737 733 734 735 737 735 730 734 739 736 737 738 741 745 747 753 756 757 761 758 764 774 773 771 769 772 777 765 755 757 757 758 757 753 754 753 754 757 759 759 759 759
765 764 763 760 760 760 760 757 752 752 754 753 752 749 750 756 766 782 780 753 738 733 725 727 727 721 724 729 729 726 725 725 721 724 728 728 729 731 732 735 739 744 750 749 745 744 739 734 735 730 727 729 728 734 739 737 739 740 742 748 752 760 762 762 767 766 775 784 776 773 774 773 777 769 760 759 757 759 758 753 752 751 752 756 758 758 758 759
762 761 760 758 757 757 756 754 751 752 753 752 753 750 754 767 777 779 763 743 741 738 731 733 729 723 726 727 728 727 726 727 723 724 729 732 736 736 736 739 742 751 759 755 750 748 741 734 734 730 725 726 729 736 741 740 742 742 745 753 761 773 776 776 780 780 782 783 775 774 776 774 775 768 763 764 760 760 758 753 754 752 751 754 756 757 759 760
759 757 755 754 753 752 750 751 752 753 752 752 754 753 761 776 776 766 756 748 744 736 732 733 729 727 728 728 729 725 725 728 723 723 727 731 737 737 735 736 738 745 754 756 755 751 745 740 735 732 728 723 727 738 744 744 744 743 745 754 764 778 786 790 797 797 789 780 776 777 776 775 775 769 766 768 765 762 757 754 755 754 754 756 757 759 760 762
756 754 751 750 749 747 746 749 751 751 752 753 755 759 769 777 769 758 756 752 742 734 732 732 731 729 729 730 727 722 726 728 722 723 728 732 739 741 738 737 737 738 743 753 757 753 754 752 739 732 731 726 726 731 734 737 742 745 745 749 757 766 773 783 788 787 785 782 780 780 777 777 778 772 768 768 766 762 758 757 757 757 758 758 760 764 766 766
752 750 748 745 743 742 743 746 748 750 752 752 757 766 772 770 763 758 755 747 740 738 735 732 732 733 732 730 726 721 726 728 723 725 730 734 738 739 737 735 735 737 741 752 756 753 757 753 735 729 729 727 728 728 726 731 741 750 750 749 753 752 755 773 785 781 779 781 780 780 778 778 776 770 767 768 765 761 759 759 760 761 761 761 764 769 772 774
748 745 743 741 739 738 740 741 744 748 750 753 762 769 767 760 756 754 747 740 741 741 739 737 734 737 739 735 731 726 722 725 726 728 732 734 734 734 733 730 729 732 735 743 751 752 755 749 734 730 729 725 728 728 725 731 740 750 752 748 750 748 747 766 786 787 782 780 782 784 780 777 777 772 767 768 766 764 764 763 763 764 763 764 768 768 772 780
745 742 740 738 736 736 737 738 741 745 748 754 762 764 761 754 749 747 741 738 740 739 743 748 741 738 743 742 739 732 724 727 729 731 735 735 734 735 731 726 724 725 725 730 741 745 747 747 739 733 731 726 725 726 726 729 734 744 748 744 747 752 750 759 777 787 789 786 786 788 785 781 783 778 771 769 769 768 769 768 767 767 765 767 770 767 770 780
744 742 739 736 734 732 733 736 739 743 748 755 761 760 758 752 744 742 739 738 740 739 746 753 744 737 740 741 739 733 729 733 734 734 736 736 737 736 732 728 723 722 722 723 731 738 741 747 743 736 735 730 724 727 732 732 731 737 741 738 744 754 756 761 773 783 789 793 791 791 792 788 783 778 772 770 771 770 771 771 769 769 769 771 771 770 773 779
745 742 738 735 733 730 732 735 738 742 749 757 762 758 754 750 742 740 740 738 741 742 746 747 741 738 738 736 735 732 731 735 736 737 738 738 739 734 730 730 724 721 724 723 729 737 741 748 747 737 735 735 731 736 745 742 734 735 739 740 745 752 757 762 770 773 779 792 797 792 792 787 777 773 771 769 771 771 771 773 771 771 773 775 775 774 775 777
746 743 739 736 733 732 734 736 739 745 750 756 759 754 750 748 743 739 738 738 739 740 743 742 740 740 737 732 732 731 730 733 736 740 740 736 736 734 729 728 725 723 723 724 730 737 741 749 750 740 736 742 743 744 749 748 743 742 744 747 751 755 761 763 769 773 771 781 792 792 793 787 771 769 769 767 770 770 769 771 772 773 774 776 778 777 776 777
748 745 742 739 737 737 737 738 743 747 750 754 755 752 748 746 743 740 737 737 738 736 736 737 738 738 735 732 731 729 730 732 735 740 741 735 736 737 731 727 726 725 724 727 732 736 740 746 749 746 745 749 749 745 744 744 745 747 750 756 759 759 761 763 773 779 771 774 784 787 790 784 768 765 768 767 769 770 769 770 772 774 775 776 778 777 778 780
749 747 744 741 741 740 739 743 749 750 749 750 750 746 744 742 741 741 737 736 737 733 731 733 733 733 733 730 727 727 731 733 733 737 738 736 736 734 729 725 726 726 728 735 739 738 739 743 747 752 754 753 750 746 746 745 745 746 750 759 762 759 758 760 768 774 774 779 784 781 785 780 766 766 769 768 770 770 770 772 773 776 778 778 779 778 782 785
752 749 744 742 742 740 741 746 751 750 748 747 744 741 740 740 741 740 737 736 735 732 731 732 729 728 728 726 725 727 731 732 733 734 734 735 733 729 726 724 724 727 731 736 740 737 739 745 751 756 758 755 749 745 745 744 745 748 753 758 760 760 761 761 764 767 770 778 779 778 786 779 767 770 772 769 771 772 773 775 776 779 781 781 781 781 785 788
755 754 748 744 740 739 745 751 752 752 751 749 746 742 739 738 738 738 737 737 736 734 734 732 730 730 728 726 729 733 735 734 734 733 733 735 732 727 727 724 723 728 732 734 737 736 740 750 753 757 765 766 761 755 749 747 751 757 762 762 760 761 762 764 767 766 768 779 777 774 784 781 771 774 775 771 773 774 776 778 777 779 781 783 783 784 785 786
756 754 753 751 745 743 752 759 757 756 754 751 749 745 741 738 734 734 736 737 739 740 738 736 734 735 733 729 732 736 736 735 736 735 735 733 729 728 730 727 725 729 731 733 735 736 744 755 754 754 764 771 771 768 761 758 762 766 767 765 764 763 759 760 765 764 769 782 780 773 779 780 776 778 778 778 778 776 777 779 778 779 780 781 782 782 783 783
757 758 759 758 755 756 760 761 761 760 756 752 751 747 745 743 737 733 734 738 741 742 743 743 740 738 736 734 736 742 742 739 738 740 742 740 735 733 733 729 727 730 731 733 736 739 748 759 758 753 756 761 764 765 762 760 765 770 770 767 767 767 763 761 765 767 771 779 779 777 779 779 781 784 784 784 783 780 781 780 779 780 779 779 780 781 782 783
762 768 770 767 764 766 764 761 764 765 758 752 752 751 751 750 744 738 737 740 744 744 745 749 747 745 745 742 740 745 750 748 744 747 751 748 741 737 734 732 732 732 732 734 739 742 748 758 761 759 760 761 762 762 761 761 766 770 771 769 768 766 762 760 764 770 774 774 777 782 782 782 788 793 791 790 788 785 785 784 782 783 782 782 782 782 782 783
767 772 775 772 771 773 771 768 769 767 759 753 753 754 755 754 751 749 745 743 746 746 746 752 756 755 755 751 744 748 755 753 751 755 756 753 748 741 737 736 736 736 735 737 741 744 750 758 763 764 765 767 767 765 763 765 772 777 777 775 772 767 763 764 771 778 775 772 778 786 788 790 795 797 796 796 794 790 790 790 787 787 786 785 784 784 785 785
774 775 776 773 773 775 775 772 769 767 763 759 757 757 758 759 757 755 752 748 750 752 751 758 764 762 759 755 750 758 763 757 757 763 761 757 755 751 747 744 742 739 738 739 744 748 753 761 764 764 767 772 773 770 766 767 776 783 785 783 779 776 775 775 783 789 782 781 790 793 792 799 803 801 800 798 796 794 793 793 793 792 792 790 787 788 789 788
780 781 781 777 775 775 773 771 770 771 771 767 764 763 763 763 761 757 756 755 757 757 756 761 766 764 762 760 758 764 768 763 763 765 763 762 759 756 756 754 749 746 743 743 747 747 750 761 764 761 766 774 775 773 771 771 777 781 784 786 783 780 781 783 789 793 787 790 799 794 792 800 804 803 803 800 796 795 794 796 798 798 798 795 793 793 793 792
784 785 784 781 780 779 777 774 773 776 780 779 776 771 769 769 766 762 760 760 761 760 760 762 764 763 762 762 762 765 767 767 766 763 762 763 760 757 757 756 753 752 749 749 750 746 748 760 765 761 766 775 776 776 775 773 775 778 783 789 787 783 787 793 799 801 794 791 792 789 793 804 805 804 805 802 799 799 800 801 802 801 800 800 799 799 799 797
785 784 784 783 783 785 784 780 778 781 788 790 785 778 775 773 769 765 764 764 763 763 763 763 762 762 762 764 764 764 764 764 763 762 761 762 760 758 757 755 754 754 753 751 753 753 753 757 762 764 769 776 778 778 776 772 774 781 788 796 798 795 796 800 806 810 806 799 794 794 802 810 809 806 807 806 804 805 806 806 805 804 804 803 804 804 803 802
Wind_Speed
14 13 13 13 13 13 13 13 12 13 12 12 12 12 12 12 12 12 11 11 11 12 12 12 12 12 13 13 13 14 17 19 20 14 9 11 11 10 9 10 9 8 9 10 7 2 2 2 3 1 2 1 1 1 2 3 2 2 3 2 3 3 3 4 5 3 2 5 7 6 6 4 4 4 1 6 8 8 9 7 5 8 10 12 16 21 23 23
14 14 14 14 14 13 13 13 13 13 12 12 12 12 12 12 12 12 11 11 11 11 11 12 12 12 12 12 13 15 18 19 17 15 14 12 8 8 12 14 9 7 9 8 8 4 3 3 3 3 3 1 1 1 1 1 2 3 3 2 4 4 4 5 4 3 3 5 8 7 3 2 1 1 1 4 2 4 9 7 6 11 14 15 17 20 19 21
14 14 14 14 14 14 13 13 13 13 13 13 12 12 12 12 12 12 12 11 11 11 11 12 12 12 12 12 13 15 17 15 9 10 8 7 9 12 16 15 10 9 8 5 5 4 4 3 2 4 4 1 2 1 1 1 2 2 3 2 5 5 5 5 6 7 7 5 6 8 4 3 3 2 1 5 4 4 6 5 6 10 13 13 12 15 17 18
15 14 15 15 14 14 14 14 14 13 13 13 13 13 12 12 12 12 12 11 11 11 11 12 12 12 12 12 12 14 13 7 3 5 2 3 5 12 18 16 12 11 8 4 2 3 4 3 3 4 3 1 3 1 1 3 2 1 3 5 6 4 3 7 8 8 7 4 4 7 7 6 4 1 2 5 4 2 4 6 8 14 15 14 12 13 15 15
15 15 15 15 14 14 14 13 14 13 13 13 12 13 13 12 12 12 11 11 12 11 12 11 11 12 11 12 12 12 7 2 2 4 2 3 3 10 18 17 14 12 9 5 3 4 4 3 4 4 3 1 3 2 2 5 2 1 3 6 6 3 3 9 6 6 6 3 3 4 5 6 3 3 3 7 5 4 5 5 9 17 19 16 15 14 13 13
15 15 15 15 15 14 14 14 14 14 13 13 12 13 12 12 12 12 11 11 12 11 11 10 11 11 11 12 10 6 2 0 5 5 3 3 3 8 16 18 16 12 9 7 4 5 3 4 4 2 2 0 1 2 4 4 3 2 4 4 6 5 5 8 5 5 5 2 4 3 3 3 4 4 2 6 4 5 3 8 12 15 17 17 16 14 13 12
15 15 15 15 14 14 14 14 14 14 13 13 12 12 12 12 12 11 11 11 11 11 11 10 10 10 11 11 5 1 2 5 9 5 5 5 5 8 15 19 16 12 11 8 5 4 4 5 3 3 3 0 3 4 5 3 2 4 4 5 7 6 7 9 8 7 4 4 6 2 4 4 4 5 2 4 2 2 7 13 15 15 16 16 14 13 13 12
15 15 16 15 15 15 14 14 15 14 13 13 12 12 12 12 11 11 11 11 11 11 10 9 9 9 10 8 1 2 1 7 9 5 6 8 7 10 17 19 16 13 13 12 8 6 5 5 4 3 2 2 3 4 4 2 1 4 6 5 5 5 8 10 9 8 6 6 6 1 4 8 6 1 4 5 3 7 12 15 16 15 15 13 12 13 12 11
16 16 16 15 15 15 15 15 15 14 13 13 13 13 12 11 11 11 10 10 10 9 9 8 8 7 8 5 2 2 3 5 4 3 6 8 9 12 17 18 17 15 13 13 11 9 6 4 4 4 3 3 3 3 3 1 2 5 6 5 4 6 8 8 8 8 7 5 3 3 6 9 5 4 3 3 4 8 12 15 15 15 14 13 11 12 12 11
17 17 16 16 15 15 15 14 14 14 13 13 13 12 12 11 11 11 10 10 10 9 8 7 6 6 6 3 2 1 4 2 2 4 5 8 10 13 17 17 18 18 12 9 11 11 6 5 5 4 4 2 3 3 2 4 3 5 4 5 6 9 9 6 7 8 5 5 5 7 7 6 2 4 1 1 6 10 13 14 13 14 14 14 11 9 9 10
17 17 17 16 15 15 15 14 14 14 13 13 13 12 12 11 11 11 10 10 9 8 7 6 5 4 3 1 3 3 5 3 2 3 5 9 11 13 17 16 17 20 14 8 11 12 7 6 4 3 2 2 2 3 3 4 3 4 3 5 7 7 7 5 5 7 3 3 6 8 5 2 2 2 5 7 9 10 14 14 12 13 12 12 11 8 7 7
18 17 17 16 15 15 15 14 14 13 13 13 12 12 11 11 10 10 10 9 8 7 6 4 3 2 1 1 5 9 4 2 2 4 6 9 10 11 14 16 16 19 16 8 8 15 14 8 4 3 2 0 1 3 4 4 2 4 1 2 8 7 5 6 5 5 5 3 5 8 2 3 1 3 7 10 10 10 13 15 12 10 9 10 9 7 6 6
18 18 17 17 16 15 15 14 13 13 13 12 12 12 10 10 10 9 9 8 7 6 5 3 3 3 0 1 8 9 6 4 6 6 8 7 8 8 11 14 13 15 16 11 9 15 17 11 6 4 3 2 3 4 0 1 1 3 1 1 5 7 6 7 2 2 4 3 6 7 3 6 5 6 9 12 12 12 12 13 11 8 8 8 8 7 6 6
19 18 18 17 16 15 14 13 13 12 12 12 12 11 9 8 8 9 8 8 7 5 4 3 3 2 2 6 10 7 5 7 9 10 9 8 7 5 10 13 11 13 14 14 13 12 11 9 5 2 2 4 4 5 3 5 3 3 2 1 2 2 5 7 2 0 2 3 6 7 4 6 5 7 12 12 13 16 13 11 11 8 7 7 7 7 6 6
20 20 19 18 16 15 14 13 12 11 11 11 11 9 8 7 8 8 7 7 4 2 3 3 4 3 1 8 11 6 3 6 11 14 11 11 10 6 10 14 12 13 13 14 15 12 7 4 3 1 4 3 1 2 3 4 3 3 2 3 3 1 4 9 5 4 5 4 3 7 3 4 5 10 12 11 12 15 14 12 11 9 8 8 7 7 7 5
21 21 21 20 18 16 14 12 11 11 10 10 9 8 7 7 7 6 5 5 3 3 4 3 4 4 0 6 6 4 4 6 8 13 14 14 12 7 7 11 11 11 12 14 14 12 8 4 2 2 2 2 4 4 3 4 4 3 1 2 4 2 3 6 5 5 8 4 0 4 4 2 4 9 10 10 11 12 13 12 11 10 9 9 7 6 7 5
21 22 22 21 21 18 15 13 11 10 9 9 8 8 7 7 6 4 4 3 1 4 6 2 1 2 4 8 5 5 5 7 6 11 17 16 13 9 5 5 5 6 8 11 11 7 5 3 1 1 1 3 2 4 3 3 4 4 2 1 3 2 2 3 6 6 4 7 4 4 5 3 3 7 10 10 11 11 11 12 12 10 9 8 7 7 7 7
21 21 22 22 22 20 17 14 12 10 9 8 8 9 7 6 5 3 0 3 3 3 4 2 1 0 3 6 4 5 6 5 6 11 17 17 15 13 6 3 2 1 1 4 4 2 1 1 2 1 2 4 3 5 2 4 3 3 2 1 3 3 2 4 6 5 2 4 5 5 5 4 2 8 10 8 9 10 10 11 11 10 10 8 8 8 8 9
22 21 21 22 22 22 20 16 12 10 9 7 7 7 5 1 2 1 3 4 3 2 3 3 3 1 2 4 5 7 10 7 5 9 14 17 14 12 7 2 2 3 1 1 2 1 1 1 3 0 2 1 2 5 6 7 6 5 3 3 3 4 4 6 6 6 5 3 4 6 5 1 5 9 9 8 7 7 5 6 7 8 8 7 7 8 9 10
22 21 21 21 21 22 22 18 13 10 9 7 5 5 2 1 2 0 2 3 4 6 6 5 7 4 6 6 4 6 11 8 5 9 13 16 12 6 2 1 3 3 2 3 2 1 3 1 2 4 6 7 7 7 7 4 5 4 3 3 4 5 5 6 6 7 2 4 1 4 6 4 8 8 8 8 7 6 6 6 7 8 7 7 8 9 9 9
22 22 21 21 21 21 22 21 14 10 10 8 5 3 1 1 2 2 2 4 8 10 11 10 10 9 11 9 3 3 6 5 4 5 11 14 9 5 1 1 4 0 2 3 2 2 4 2 6 9 10 8 5 4 4 1 2 2 3 3 4 4 6 6 4 7 2 5 3 1 8 5 7 8 7 8 8 8 10 10 10 10 8 8 9 9 9 6
22 22 22 22 21 20 21 21 16 11 10 8 4 1 3 3 3 3 1 4 9 11 13 13 10 10 13 14 10 2 1 2 7 6 7 10 6 5 2 3 5 3 2 3 2 3 2 3 11 9 6 4 3 4 4 3 2 1 2 2 2 3 5 7 4 6 4 4 2 2 9 4 3 4 6 9 10 8 11 13 13 13 12 9 10 10 8 7
22 22 23 22 22 21 20 20 17 12 9 7 5 5 5 8 6 7 3 3 8 6 9 10 8 8 9 11 10 6 4 4 4 6 7 10 5 5 4 4 5 3 2 4 4 2 1 6 9 4 6 5 2 2 4 0 1 1 3 2 2 4 1 3 5 7 6 3 2 4 6 1 3 1 4 6 4 4 8 11 9 10 12 11 12 11 10 11
22 22 22 22 23 21 20 22 16 8 7 8 10 8 10 13 12 8 2 1 5 4 5 9 7 6 8 7 7 10 4 4 5 5 8 12 4 3 5 4 4 2 3 5 7 5 6 9 4 4 6 6 3 2 2 2 3 3 4 4 3 4 3 4 4 6 6 5 4 6 5 4 3 2 5 5 2 2 6 7 6 7 7 6 7 8 10 10
23 22 22 23 23 22 22 18 6 3 10 11 11 11 14 17 15 5 2 2 4 5 4 5 5 5 9 6 8 9 2 3 6 5 9 13 7 4 3 3 4 3 5 5 6 4 8 8 1 1 2 6 5 4 4 6 3 4 4 7 7 6 5 3 3 4 5 6 4 4 4 3 4 0 5 4 2 4 5 6 8 7 5 5 7 8 8 7
23 22 22 22 22 24 20 8 2 9 13 8 7 13 14 17 16 4 4 4 3 5 3 2 3 5 7 6 6 6 2 4 7 9 10 12 10 6 2 2 1 3 5 5 3 2 5 4 1 4 5 5 5 4 5 7 4 2 5 7 6 5 3 1 4 4 2 1 3 3 5 2 5 3 3 4 6 7 5 6 6 6 6 6 7 8 8 8
23 23 23 21 21 22 13 4 9 13 7 4 10 13 11 14 12 3 3 5 2 4 1 1 0 4 5 5 7 6 2 4 3 7 10 12 9 3 4 3 0 3 4 3 0 2 3 4 3 1 2 4 4 4 6 8 7 3 5 5 6 5 4 2 5 5 2 3 3 5 5 3 2 4 5 2 5 6 5 6 5 6 7 6 6 7 7 8
24 23 23 21 19 17 11 10 13 8 3 6 13 12 11 12 7 3 4 3 2 2 1 1 1 4 2 2 8 6 4 2 2 4 7 13 10 2 3 6 5 5 2 5 3 5 2 2 3 1 2 3 5 6 8 9 5 6 5 6 5 5 4 3 6 4 1 1 2 6 3 3 3 5 5 2 5 5 7 8 8 9 9 7 6 7 7 7
24 23 22 22 20 16 11 9 9 6 5 10 14 14 11 7 2 4 3 1 2 1 1 0 1 2 0 2 5 7 4 1 1 3 2 8 7 2 3 6 6 5 2 4 5 6 3 5 5 4 4 5 7 6 9 10 4 4 5 5 4 5 4 4 5 3 3 3 2 6 3 2 3 5 4 3 3 4 7 8 9 10 9 8 7 6 8 7
25 23 21 21 19 13 8 10 14 10 7 12 15 14 10 4 4 4 0 2 2 2 1 1 2 1 3 3 3 6 5 2 1 1 4 2 2 2 2 2 6 3 2 3 2 6 5 3 3 5 4 6 6 4 6 8 5 3 5 5 6 5 5 4 3 4 5 2 5 7 2 3 1 5 3 0 1 4 5 5 6 8 8 8 7 7 8 8
25 23 21 20 17 11 5 8 12 6 3 14 18 11 5 3 4 3 3 3 2 2 1 0 2 1 3 3 3 4 5 2 0 3 3 2 1 2 2 2 3 2 3 4 3 4 7 4 1 3 3 4 4 3 1 1 2 4 4 4 4 2 5 4 4 4 4 2 6 6 1 4 2 4 4 4 5 5 5 6 7 9 9 8 7 7 6 6
26 23 21 19 18 14 11 9 8 6 9 16 14 5 3 1 0 2 4 3 2 2 1 1 2 2 1 3 2 3 3 3 2 3 4 3 4 4 3 4 4 1 2 3 3 4 4 4 4 5 3 4 5 2 1 5 5 5 5 5 4 1 3 1 2 2 2 3 4 3 1 2 4 5 5 7 7 5 3 4 4 7 8 8 8 7 5 5
27 25 22 19 17 19 20 16 13 12 12 11 6 4 6 3 2 5 4 2 1 1 2 2 3 4 3 2 2 3 1 3 5 3 4 4 4 6 4 3 5 3 2 4 1 1 3 5 5 4 3 1 6 5 2 1 1 3 5 4 4 3 2 1 3 1 1 3 3 3 0 0 3 3 5 8 7 4 2 5 4 3 4 5 5 4 5 5
29 25 22 19 17 21 21 17 13 11 7 3 3 5 5 3 4 4 3 3 3 3 3 3 5 6 2 2 3 2 1 3 5 4 3 4 4 4 4 3 3 3 2 3 2 3 2 3 3 3 2 1 4 5 6 5 3 2 4 6 4 4 4 3 3 3 2 2 2 3 0 2 1 2 5 6 3 3 6 7 8 8 7 8 8 8 6 5
30 25 21 19 19 21 19 16 14 9 4 2 5 4 4 4 4 2 3 4 2 3 5 5 4 4 2 3 4 2 3 2 3 4 3 4 5 5 4 5 5 4 4 3 3 2 4 3 6 4 2 2 2 3 4 6 3 1 2 5 3 4 5 2 2 5 4 2 0 2 2 2 2 2 5 4 2 7 8 8 10 9 8 10 10 9 8 7
30 24 17 14 17 18 14 13 15 13 7 5 4 2 4 4 3 3 3 2 0 2 6 6 3 1 2 3 3 2 3 1 0 2 2 2 3 4 3 4 6 7 6 4 3 1 2 4 7 5 3 2 3 3 2 4 2 1 2 3 4 3 7 5 1 1 4 3 1 1 2 1 1 1 5 4 5 7 7 8 9 8 9 10 8 8 8 5
28 21 10 9 14 14 11 12 17 17 7 6 4 5 4 3 4 4 2 2 1 2 3 3 2 1 1 1 2 4 3 2 2 1 1 1 1 2 2 3 3 9 9 5 2 3 4 2 6 2 2 2 1 3 4 3 5 4 2 5 2 2 5 5 2 3 5 2 3 2 1 1 2 1 4 5 4 4 5 5 5 6 9 9 7 8 8 4
21 14 7 9 13 10 11 15 22 16 6 4 4 3 3 3 3 2 2 4 2 2 3 1 3 2 2 2 3 2 1 0 1 1 1 2 1 1 2 3 1 5 7 4 2 1 4 1 7 2 2 5 5 6 4 4 3 4 4 3 4 3 1 2 3 2 2 2 2 3 1 2 2 2 3 0 3 3 2 2 3 4 4 5 7 9 9 7
11 5 3 10 15 5 15 21 20 10 4 4 4 3 3 3 4 2 2 4 1 1 1 4 3 1 2 4 3 2 2 3 1 1 1 0 1 2 0 2 1 2 1 2 4 1 3 3 4 4 2 3 5 5 2 5 5 3 2 3 3 3 4 2 3 3 4 3 2 1 2 2 4 4 4 4 6 6 5 3 3 3 2 2 3 6 7 6
4 1 2 14 15 6 21 20 12 5 3 5 4 3 2 2 3 3 3 3 2 1 2 3 3 2 3 4 3 2 3 4 2 1 1 1 1 2 2 2 2 5 5 3 3 2 3 3 3 5 3 2 2 0 3 2 2 3 3 3 2 2 3 2 1 2 4 4 3 2 0 4 5 3 5 6 6 7 8 6 5 4 4 3 2 3 4 4
3 2 3 16 9 15 18 11 4 3 4 2 1 3 2 2 3 3 4 4 2 3 4 5 5 4 4 4 3 3 3 3 3 2 2 1 2 1 2 1 1 4 5 5 4 1 2 3 3 1 3 2 1 2 1 3 3 4 3 1 2 3 4 4 1 1 1 4 4 5 2 6 5 3 4 4 4 7 7 7 6 4 5 5 3 4 4 3
3 1 4 17 5 15 7 4 1 1 3 3 1 3 2 2 3 3 4 3 3 5 4 4 6 5 5 5 4 4 3 3 3 4 3 2 2 3 3 2 5 4 4 3 2 1 3 4 3 1 0 2 2 2 3 1 5 6 4 2 3 3 3 5 4 3 1 3 2 4 2 5 5 2 2 2 2 4 4 6 6 5 4 4 4 5 3 1
3 2 6 21 7 11 2 5 2 2 0 3 2 3 2 2 2 2 3 2 2 3 2 2 3 3 3 2 0 2 3 1 2 3 5 3 3 5 2 4 6 4 4 2 3 2 2 4 3 0 3 3 4 4 4 4 6 6 3 2 3 1 2 5 5 3 3 3 2 4 1 4 5 5 3 1 3 4 5 5 6 6 4 3 5 6 5 4
2 3 4 22 17 4 3 3 1 1 2 3 4 2 3 2 3 4 4 1 2 2 1 1 2 3 2 1 3 3 2 2 0 1 3 4 2 3 2 4 4 3 2 1 2 0 1 1 3 3 1 2 4 4 5 5 4 3 3 4 3 3 3 2 1 3 3 3 4 5 2 6 4 5 5 5 6 6 5 4 6 6 5 5 5 6 6 6
3 0 2 15 20 8 3 1 2 1 2 2 3 4 3 2 4 5 3 1 3 2 1 2 3 4 4 3 5 4 4 3 1 2 2 1 1 3 4 3 3 3 2 3 2 2 2 2 3 5 4 4 2 1 2 1 2 2 3 6 5 4 5 2 2 4 2 2 3 5 4 4 4 6 7 6 5 6 5 4 4 5 6 6 6 6 6 6
2 3 2 6 10 7 1 1 1 2 2 1 2 3 2 2 4 2 3 4 3 3 4 4 3 3 5 5 5 6 7 5 3 3 4 3 2 3 4 2 5 5 4 5 5 3 4 2 2 5 5 5 5 4 3 2 4 1 2 5 5 4 4 4 4 3 3 3 2 1 4 3 3 6 7 6 4 3 3 4 4 4 5 6 5 5 5 5
2 2 3 3 3 4 3 4 5 4 3 0 0 3 4 3 3 4 4 4 3 3 4 6 7 5 3 3 5 4 6 6 6 5 4 4 3 3 5 5 6 6 4 5 6 3 5 3 1 5 4 2 4 2 1 4 5 3 1 3 4 3 5 7 4 2 4 5 1 5 1 5 2 6 6 6 6 3 3 2 0 1 1 0 1 3 4 4
3 1 2 2 2 3 3 4 6 6 6 5 2 2 5 6 6 4 4 3 4 4 3 5 9 7 4 3 3 3 5 5 6 5 4 5 4 4 6 5 5 6 4 4 4 4 6 1 1 3 5 4 3 4 5 6 5 3 3 3 3 3 5 6 2 1 3 5 4 2 5 6 3 6 6 5 4 3 4 4 3 3 4 4 5 5 5 4
3 1 3 2 2 2 1 3 5 7 10 9 4 4 7 8 7 5 3 2 5 6 4 4 6 8 8 6 4 4 4 3 3 4 3 4 4 3 4 3 4 6 5 4 2 3 4 1 1 3 4 5 4 3 7 8 5 4 5 4 3 5 7 7 3 2 6 6 4 7 11 7 3 4 5 6 4 3 5 6 7 7 7 6 7 7 6 6
2 0 3 3 2 3 3 3 4 7 10 9 6 6 7 7 7 5 5 4 3 4 5 5 3 4 7 9 7 4 1 2 2 2 1 3 4 3 2 1 3 6 5 3 1 1 3 2 1 3 4 3 4 4 7 9 7 6 6 5 4 7 7 6 4 3 6 6 3 8 11 6 4 4 5 5 4 7 9 10 9 8 8 8 9 8 7 7
4 3 2 2 2 5 4 4 4 5 6 8 6 6 7 7 7 4 5 6 4 3 3 4 4 3 5 9 9 4 2 3 4 5 3 2 1 1 1 1 1 4 5 3 2 2 4 2 1 5 4 0 2 3 6 7 8 8 6 7 6 5 5 4 3 3 2 5 5 7 8 2 4 4 5 6 9 11 11 9 9 8 8 9 9 8 8 7
8 3 3 3 2 5 4 4 5 4 2 4 6 7 7 8 9 4 4 5 6 5 2 2 3 3 5 8 7 3 5 5 6 7 5 5 5 4 4 4 1 1 2 2 2 2 3 4 2 4 4 2 3 1 3 5 6 3 2 3 3 3 6 5 5 6 4 3 5 4 3 1 4 3 5 8 10 11 9 7 7 7 8 8 8 8 8 7
Wind_Direction
319 320 318 315 313 311 309 309 310 310 311 311 311 313 312 314 312 312 315 313 314 314 316 316 316 317 316 317 321 320 314 311 312 307 263 260 269 254 223 190 181 182 207 227 224 244 27 34 7 61 101 98 171 213 194 178 150 91 99 141 224 207 194 199 199 186 189 272 292 320 352 0 350 343 29 54 50 78 73 49 54 47 60 92 102 115 128 140
320 319 316 314 312 309 308 307 308 308 307 308 310 312 312 314 313 314 315 314 314 314 317 317 317 317 318 321 320 316 315 314 309 285 259 264 268 227 190 176 185 187 186 204 210 195 103 67 23 67 78 37 272 245 212 203 162 139 124 186 228 203 212 214 215 240 231 259 291 307 322 319 325 303 346 91 67 68 80 60 65 81 87 96 108 118 128 140
320 318 315 313 311 309 308 307 308 307 307 307 307 309 311 313 313 313 314 315 314 315 316 316 318 318 322 322 316 317 316 320 305 269 268 274 245 211 180 170 182 180 172 189 205 190 149 128 59 69 71 357 278 269 294 266 204 175 141 220 246 209 230 251 230 238 242 243 290 304 304 296 283 286 7 121 114 71 116 130 101 110 116 115 119 123 132 142
321 317 313 313 312 309 307 307 306 305 306 305 305 307 308 310 312 312 313 315 314 314 314 316 319 318 323 322 316 319 320 327 288 258 286 298 238 196 184 176 175 176 178 201 200 164 159 125 63 64 80 357 306 1 273 258 220 197 164 205 242 199 237 260 229 238 250 223 260 298 316 310 289 38 85 126 107 1 200 187 154 142 137 131 134 135 139 143
321 317 313 313 311 307 306 305 302 302 303 303 304 304 304 307 308 310 311 312 313 313 313 313 318 321 322 322 318 315 330 25 268 277 284 275 249 192 189 183 181 182 182 203 201 154 153 106 73 56 68 356 322 39 251 249 156 176 225 211 236 196 241 266 241 241 243 236 286 295 301 297 327 44 123 142 152 243 229 186 154 148 146 144 144 142 142 144
321 315 314 313 310 307 305 303 301 301 302 301 302 302 304 305 304 308 308 309 310 308 310 313 318 323 322 322 319 311 15 84 278 285 266 238 222 195 188 188 190 190 190 201 187 149 137 90 78 77 84 75 224 183 248 262 140 203 269 240 244 211 219 269 268 244 222 238 275 228 266 304 4 347 143 141 187 242 198 132 136 144 144 140 139 142 144 148
321 316 313 312 309 307 304 301 300 300 301 299 298 299 300 302 303 306 306 307 306 306 310 312 318 322 325 330 325 1 77 264 277 276 248 223 206 192 183 190 193 193 200 200 166 136 124 105 116 148 113 321 209 208 244 262 162 198 258 267 258 234 227 257 264 257 229 222 242 228 328 302 286 294 67 56 326 151 114 118 127 134 135 135 138 143 147 152
324 318 314 312 308 306 304 300 299 300 300 298 297 297 296 298 299 299 301 303 302 305 307 307 318 321 325 338 1 1 296 252 273 273 236 218 206 188 179 185 191 194 198 199 181 151 138 130 165 158 113 257 191 207 240 249 274 207 231 257 264 259 248 256 264 263 243 234 248 261 290 257 232 188 58 12 18 108 114 119 126 130 134 139 144 148 152 156
327 321 317 313 308 305 300 297 299 299 298 297 295 296 295 295 296 296 297 299 299 299 302 306 313 315 320 335 38 331 272 240 267 256 224 218 212 188 181 186 191 193 191 202 192 168 170 162 185 180 176 237 196 229 234 168 266 217 220 253 270 274 265 263 267 258 236 230 215 172 245 253 217 116 40 348 95 114 116 121 128 131 139 145 149 157 159 160
331 325 320 315 309 304 298 296 297 297 297 295 294 296 298 298 298 298 296 297 297 294 301 305 301 309 315 320 98 257 283 285 254 235 231 227 209 184 185 191 191 190 187 196 191 177 169 169 186 175 179 236 215 232 198 159 219 222 222 260 258 267 270 262 264 254 219 218 198 180 231 262 213 118 82 228 132 126 119 124 135 136 145 150 154 164 162 164
334 329 324 317 311 305 301 300 298 296 293 291 293 295 295 298 296 294 294 292 292 292 295 298 302 306 305 4 132 221 282 313 252 239 248 231 209 193 193 194 192 192 188 182 194 194 186 182 171 129 171 256 248 272 261 197 218 261 272 300 280 284 283 260 265 259 193 217 200 171 225 288 72 114 174 169 145 138 130 132 143 139 146 152 155 164 166 172
338 333 329 322 315 310 306 301 297 292 290 292 292 291 292 294 292 290 291 290 289 287 281 282 288 266 309 23 211 234 257 344 301 249 252 238 219 218 208 200 198 197 192 179 200 208 208 201 138 124 222 267 322 294 268 219 220 279 296 312 299 341 322 261 248 230 166 205 188 147 291 311 322 245 178 153 144 143 137 140 146 141 145 152 158 165 170 175
341 338 334 328 321 315 309 303 297 293 291 291 287 289 294 292 292 292 290 287 285 279 263 242 243 239 19 261 240 249 257 285 300 260 249 242 226 231 215 205 205 204 201 199 214 217 218 216 168 181 222 135 264 262 299 345 325 309 48 147 303 358 324 270 246 195 167 203 174 137 281 274 274 246 168 149 148 145 143 147 146 142 147 153 164 168 169 170
345 343 339 333 328 321 315 307 300 295 291 288 287 293 298 293 292 290 287 283 280 274 246 211 211 180 138 258 268 291 279 260 258 242 229 218 211 207 199 200 205 206 209 219 233 234 229 221 189 232 243 173 236 275 347 360 2 333 357 55 345 351 288 288 306 306 256 245 159 136 238 253 253 210 169 160 157 151 152 152 146 148 153 159 167 169 170 176
350 348 345 340 335 327 319 310 303 298 294 291 295 300 297 290 287 285 285 279 271 232 196 188 198 171 26 279 276 301 281 230 228 221 211 206 192 172 191 199 209 213 218 231 240 248 254 227 176 228 261 226 59 4 341 350 359 3 3 327 331 200 275 298 288 201 217 265 140 142 218 265 223 197 176 166 163 155 153 154 154 156 157 163 169 169 169 178
353 352 351 348 343 335 325 315 307 303 300 299 302 301 291 285 280 278 279 274 257 189 171 175 204 182 294 283 283 303 240 216 226 209 203 209 196 182 189 195 218 229 231 243 248 258 266 246 194 180 242 323 66 78 34 8 344 355 81 252 282 298 302 313 307 242 206 205 278 176 187 253 229 198 180 167 166 158 153 157 162 162 163 166 166 169 167 170
355 353 353 352 350 344 332 320 313 307 306 307 303 295 289 281 265 270 285 277 249 189 178 178 235 181 257 275 295 312 248 215 221 197 198 210 208 204 181 173 223 239 241 254 255 262 259 228 239 310 28 25 80 93 51 355 310 316 13 262 255 266 290 302 302 287 203 172 213 215 188 239 251 185 176 171 164 158 158 166 168 166 166 166 164 170 171 174
352 352 352 353 352 349 341 326 316 312 310 313 310 305 300 275 249 261 211 143 110 135 191 256 321 164 266 276 285 305 299 255 214 192 197 205 213 220 211 176 158 123 315 298 271 260 250 281 46 30 0 15 52 85 118 227 211 231 290 323 292 288 254 262 273 285 264 193 184 181 210 272 251 168 169 169 162 164 174 175 169 164 164 166 170 174 177 182
349 350 350 350 351 351 347 334 320 315 318 325 322 318 319 274 213 165 138 137 118 135 246 228 181 179 255 261 271 292 313 303 215 191 200 205 212 223 220 196 90 93 81 358 305 293 135 20 36 102 288 285 185 143 178 210 179 183 222 205 260 284 266 254 249 261 258 204 162 182 199 200 164 165 161 158 157 161 167 159 156 162 167 171 177 179 183 186
346 347 347 348 348 349 348 340 326 317 323 333 337 336 344 56 42 19 173 189 207 224 251 216 187 239 280 270 281 308 321 315 217 196 202 202 193 184 195 72 65 74 132 175 230 298 113 133 259 220 221 217 208 197 200 195 147 176 241 223 249 266 274 271 266 288 266 141 222 192 149 150 172 166 157 153 150 151 149 154 166 172 175 179 184 187 188 187
344 344 343 344 345 346 348 343 331 317 319 323 332 345 217 223 335 298 256 242 234 227 244 234 202 228 259 261 280 8 346 322 276 237 203 196 165 135 214 123 109 244 248 174 176 357 78 152 236 224 219 212 189 190 217 237 157 199 227 222 261 250 264 281 281 310 342 110 335 124 127 148 172 158 156 152 161 174 168 171 177 179 185 187 188 190 187 181
344 342 339 340 341 342 344 341 333 318 313 311 308 235 224 266 259 259 299 288 262 223 227 240 226 241 256 262 270 276 86 271 299 295 197 177 148 161 218 117 143 217 249 108 93 341 30 234 244 233 207 182 132 138 166 210 214 205 193 178 279 260 282 302 305 324 354 88 349 157 131 141 195 177 180 173 180 189 179 180 181 177 181 188 191 189 182 174
342 340 338 337 336 337 338 336 328 315 312 307 263 226 286 317 301 284 287 298 282 228 212 227 225 242 253 264 252 188 164 201 255 283 190 160 156 177 162 133 171 194 120 129 158 176 263 246 239 197 135 154 210 167 145 219 338 197 205 164 273 276 306 299 302 336 355 45 111 128 112 38 330 4 216 216 200 191 189 185 181 180 184 189 191 188 180 178
340 339 337 334 332 333 334 330 320 311 323 303 271 277 321 330 327 310 254 245 289 269 223 210 197 218 233 247 198 163 173 194 196 261 180 159 158 158 163 161 152 191 210 168 155 173 243 248 223 110 123 156 207 235 176 245 292 263 223 169 203 262 234 223 286 339 356 6 55 83 56 341 358 86 217 259 22 121 191 181 178 195 196 191 187 188 185 182
340 338 334 333 331 328 331 330 319 340 331 300 283 317 336 333 336 347 126 12 295 282 276 210 187 218 217 194 161 159 164 218 209 214 171 168 168 136 185 187 135 216 218 150 138 194 254 258 198 184 195 154 175 233 207 194 228 292 246 199 191 211 237 254 341 18 28 7 2 66 69 301 322 32 209 240 132 155 187 194 194 192 188 185 183 189 186 180
338 336 333 333 329 328 332 335 342 338 324 299 313 334 330 331 344 43 120 21 303 275 301 177 177 202 198 175 160 140 103 258 229 193 175 179 176 142 152 210 121 213 193 148 144 207 262 286 84 241 244 160 164 235 225 171 151 291 242 203 176 164 209 284 63 70 80 318 321 56 116 215 314 322 243 242 199 183 185 210 208 188 200 204 189 187 180 177
336 333 332 330 329 333 334 307 317 326 312 307 340 334 319 327 345 75 100 21 315 265 214 168 135 167 188 184 152 124 149 261 221 181 184 179 179 145 159 199 207 201 171 110 11 242 248 321 9 251 228 151 162 230 219 155 132 242 231 152 129 137 176 165 97 94 169 214 326 11 96 126 313 278 279 278 181 192 209 218 221 207 213 217 200 188 175 176
333 331 331 327 327 330 315 294 308 309 248 323 338 333 321 324 335 104 79 20 286 275 170 224 241 166 203 165 149 160 214 235 105 214 197 169 172 131 186 210 180 191 183 119 216 261 232 293 292 189 136 163 197 212 185 149 150 239 200 137 128 138 150 131 99 91 37 91 320 327 38 95 271 272 306 15 143 198 223 215 218 216 210 211 208 188 168 172
330 329 328 324 322 321 310 288 284 275 281 326 338 332 323 322 0 84 71 339 267 303 106 96 273 193 186 114 171 209 235 56 146 240 130 156 182 135 185 205 156 178 250 128 200 260 250 231 216 159 149 203 223 214 168 156 195 226 151 110 70 71 75 72 92 95 34 58 228 285 347 100 272 289 319 17 104 205 230 224 221 217 207 199 197 185 171 170
328 325 326 323 318 319 315 280 277 280 301 332 335 327 326 352 56 65 62 259 266 263 133 124 276 173 118 131 205 224 226 278 268 100 62 131 202 58 120 135 104 139 302 26 229 256 286 282 174 155 181 205 209 197 166 169 183 136 96 70 57 41 28 36 54 77 63 12 252 263 291 109 253 284 276 228 166 218 227 233 226 215 209 197 186 186 182 171
325 323 322 316 308 307 300 283 286 277 326 337 332 327 341 34 72 100 213 249 271 278 13 302 277 41 125 172 231 221 208 239 347 94 86 110 110 41 29 58 72 75 4 344 297 292 325 335 244 244 211 166 143 139 122 35 66 92 82 75 89 23 10 26 357 40 89 255 259 257 336 95 178 266 278 263 265 250 214 211 214 202 197 189 176 182 184 167
323 322 316 306 297 280 253 254 279 282 308 323 328 354 63 68 72 189 237 301 316 290 356 283 296 340 220 212 240 225 189 202 216 142 136 147 166 186 195 182 170 94 337 275 274 326 307 258 282 303 252 143 114 130 334 10 35 83 93 82 97 48 12 29 311 1 145 232 256 251 78 104 219 247 288 298 298 291 222 200 217 199 184 174 171 173 166 152
323 320 311 300 287 269 259 263 274 280 297 314 338 47 80 109 222 223 242 300 269 295 327 275 303 314 259 223 239 225 170 212 221 187 150 143 166 202 227 203 154 142 214 211 207 326 291 299 321 317 282 174 130 147 206 268 80 126 131 123 125 108 81 223 262 315 210 235 272 289 62 192 275 288 320 323 313 303 73 88 81 94 121 126 128 123 114 121
323 319 311 299 281 269 268 269 263 258 275 329 46 63 93 147 234 232 237 255 251 306 331 307 321 321 265 216 235 191 97 251 210 168 151 134 151 210 240 237 172 152 157 156 180 177 153 313 284 202 250 239 161 173 168 153 146 175 158 134 142 152 147 198 218 177 196 222 278 303 238 156 209 299 319 320 321 39 61 69 76 74 78 84 72 57 57 67
323 319 310 295 278 272 266 255 244 228 208 71 66 89 147 203 245 228 220 243 264 326 324 323 335 335 311 271 262 161 125 250 202 145 155 155 171 197 201 213 201 154 126 158 222 166 135 239 254 249 255 164 193 236 147 115 100 254 129 108 148 186 147 133 174 169 170 139 143 257 208 193 206 287 315 321 49 68 72 71 75 80 79 80 76 62 44 31
324 322 314 286 273 274 262 237 219 195 166 102 89 164 201 214 216 195 225 242 3 337 332 339 0 15 324 312 305 350 75 65 93 133 183 183 183 199 199 216 197 169 157 165 208 170 118 254 277 313 339 141 178 226 131 109 152 211 107 152 216 181 120 108 138 95 78 104 228 238 170 320 14 322 324 4 50 57 71 81 87 98 96 89 93 91 72 25
326 327 312 278 287 280 252 215 185 172 145 101 142 207 215 216 207 200 269 342 353 355 26 11 329 226 251 307 293 313 10 26 6 40 245 251 248 254 263 268 201 187 187 157 180 204 143 246 288 335 52 333 144 114 63 71 125 125 183 196 189 78 91 101 104 20 46 130 268 332 157 208 102 164 318 19 64 44 40 67 89 100 104 112 120 115 118 159
323 325 294 296 317 287 229 187 164 152 107 106 174 233 212 217 233 199 343 351 332 2 55 191 250 215 187 204 240 269 52 136 352 28 269 277 257 242 275 281 226 190 202 165 123 211 123 153 289 286 168 309 2 69 38 345 72 121 190 182 102 103 144 91 117 126 104 167 276 343 320 222 170 210 282 72 166 171 57 58 91 85 89 121 129 126 138 160
319 327 308 337 343 276 186 164 150 126 74 147 191 250 206 228 274 268 316 326 272 250 257 219 229 251 221 210 201 163 134 185 190 65 223 267 228 234 309 258 263 58 48 146 143 170 92 130 266 284 238 314 9 54 43 316 344 34 40 15 47 127 158 156 140 145 143 160 218 335 6 265 223 218 214 222 220 184 158 173 162 124 77 72 132 137 140 146
330 1 338 354 353 175 158 146 133 98 120 172 190 222 227 246 272 267 259 275 258 222 240 222 220 253 245 230 214 176 148 161 120 73 212 166 182 257 347 306 316 19 24 50 117 118 56 113 209 284 326 33 17 104 169 197 323 16 32 7 3 71 114 143 96 91 130 139 169 158 58 268 254 208 197 230 230 191 171 172 169 143 116 88 70 99 101 111
5 41 336 0 15 161 148 125 111 107 152 176 187 205 257 265 251 282 255 237 241 238 239 234 234 241 244 251 245 208 160 148 122 112 238 279 114 162 318 337 33 11 19 33 41 76 96 130 171 298 9 80 203 257 208 190 157 123 111 84 137 135 122 122 117 313 103 125 161 156 166 261 263 202 205 239 221 195 176 159 154 146 138 130 102 75 57 45
30 82 326 3 33 173 137 71 192 81 139 180 212 201 219 231 232 287 269 237 229 227 233 236 237 238 234 239 222 178 154 158 166 158 186 218 176 198 235 109 87 63 72 59 319 241 131 106 106 88 291 195 232 339 22 99 113 99 92 103 127 129 106 122 173 230 82 97 145 122 127 253 266 271 254 262 195 176 156 149 146 130 127 131 116 100 77 311
44 224 319 1 2 192 105 41 219 352 136 223 272 224 210 224 225 271 267 250 236 229 241 238 233 232 218 232 207 122 106 121 210 181 162 174 224 229 220 75 75 72 75 54 297 287 76 81 93 37 311 321 317 333 11 48 70 64 33 37 74 69 107 143 173 178 130 141 145 92 99 253 284 327 326 103 106 103 106 127 136 131 133 141 135 132 145 187
342 230 312 3 8 169 126 55 194 305 292 290 324 282 255 241 222 236 245 286 328 283 291 319 335 335 296 78 67 62 65 84 338 2 144 163 225 261 356 48 77 94 91 169 221 306 12 87 106 98 34 3 347 338 352 8 33 54 352 340 15 58 68 106 125 78 105 173 153 119 180 253 285 351 20 66 87 90 90 107 129 138 147 152 153 153 157 160
340 355 269 357 11 42 104 130 179 246 284 296 299 276 270 253 243 238 201 81 8 0 13 324 339 347 335 36 56 23 24 71 68 17 59 146 357 22 21 40 96 94 125 173 145 95 104 122 111 122 152 169 176 236 251 296 5 19 344 342 2 41 52 81 94 71 111 183 117 127 191 248 318 8 21 36 73 94 95 104 128 149 158 164 167 162 160 152
8 25 326 335 9 35 40 277 33 347 308 244 277 292 301 306 306 314 100 89 30 36 48 355 347 15 3 29 60 27 8 15 26 44 36 355 347 10 0 37 78 66 79 81 56 70 102 74 97 127 145 176 181 198 212 143 91 79 321 345 349 3 51 84 91 99 168 145 77 222 195 147 25 358 358 348 0 85 120 137 149 168 173 174 171 155 142 137
68 23 1 331 351 18 358 1 15 347 308 193 63 358 357 348 352 7 28 45 24 38 56 23 19 37 2 12 81 54 355 355 17 31 10 338 321 328 356 42 53 27 46 57 29 62 92 45 44 100 86 145 160 137 85 90 98 133 148 18 350 358 62 81 92 146 149 119 99 277 247 103 39 343 344 322 320 4 29 10 334 273 289 192 128 114 108 110
51 79 343 344 2 15 6 354 346 339 357 24 53 31 17 23 38 20 347 6 22 25 64 35 17 27 19 11 99 69 359 8 23 7 344 343 342 346 3 26 22 7 37 54 20 81 103 76 245 88 60 54 84 98 99 90 77 78 69 31 4 29 77 94 92 274 124 132 189 207 82 76 4 344 347 323 328 35 35 1 354 357 353 10 36 43 46 50
41 53 321 342 49 36 315 310 337 4 14 13 18 31 30 33 36 18 341 14 19 11 52 69 16 15 29 37 84 79 17 38 39 354 345 351 340 359 20 2 346 2 41 62 37 101 115 153 207 115 83 56 45 87 109 103 89 61 39 18 42 67 78 87 72 41 88 106 143 114 88 65 355 341 343 335 348 61 61 34 30 28 14 21 39 34 22 16
43 42 325 351 37 11 337 338 16 36 18 5 12 18 17 27 28 21 20 43 48 0 27 87 79 38 45 49 68 86 80 121 108 313 336 11 345 9 43 338 323 346 9 47 10 49 97 138 197 98 86 43 17 53 96 106 110 82 44 16 49 71 58 50 42 40 76 90 103 98 87 57 359 353 354 353 24 53 51 39 35 31 24 32 38 29 20 12
347 261 340 55 28 357 355 0 30 59 24 2 5 1 1 8 5 17 40 38 58 46 36 122 122 59 51 51 55 62 243 193 196 246 231 187 259 296 307 265 1 351 349 14 350 0 73 118 57 66 91 207 352 64 100 101 89 72 40 3 14 59 70 54 32 17 92 135 113 85 87 55 314 334 10 30 46 50 43 32 31 28 27 38 41 30 26 20
354 320 25 88 74 3 358 14 28 56 42 348 348 352 355 355 355 28 78 35 28 36 34 148 124 65 46 37 27 340 284 246 234 253 240 214 234 245 247 250 190 103 326 4 25 20 80 120 117 85 121 228 304 20 111 85 70 47 323 332 10 91 110 90 42 15 24 115 116 106 127 216 307 349 46 51 52 53 45 32 32 29 24 35 42 37 36 36